Flag for Malaysia Weather past 2 weeks in Ipoh, Malaysia

Now
79 °F

Partly cloudy.


Feels Like: 83 °F
Forecast: 78 / 92 °F
Wind: 3 mph from East

Location: Sitiawan Airport

Current Time: Mar 30, 2015 at 1:20:54 AM

Latest Report: Mar 30, 2015 at 1:00 AM


Visibility: 6 mi

Pressure: 29.83 "Hg

Humidity: 94%

Dew point: 77 °F

Location of IpohLocation

Historic Weather in Ipoh — Graph

°F

Ipoh temperature yesterday

Maximum temperature yesterday: 90 °F (at 12:00 PM)
Minimum temperature yesterday: 75 °F (at 2:00 AM)
Average temperature yesterday: 82 °F

Past Weeks' High & Low Weather Summary

 TemperatureHumidityPressure
High93 °F (Mar 16, 3:00 PM)100% (Mar 17, 7:00 AM)29.98 "Hg (Mar 17, 7:00 AM)
Low73 °F (Mar 15, 5:00 AM)44% (Mar 17, 2:00 PM)29.71 "Hg (Mar 18, 5:00 PM)
Average83 °F80%29.84 "Hg
* Reported Midnight between Mar 14 and Mar 15 — Midnight between Mar 29 and Mar 30, Ipoh, Weather by CustomWeather, © 2015

Note: Actual official high and low records may vary slightly from our data, if they occured in-between our weather recording intervals... More about our weather records

Advertising

Ipoh weather history for previous 24 hours

 ConditionsComfort  
Time TempWeatherWind HumidityBarometerVisibility
12:00 AM
Mon, Mar 30
79 °FPartly cloudy.1 mph94%29.86 "Hg6 mi
11:00 PM
Sun, Mar 29
81 °FPassing clouds.2 mph89%29.86 "Hg6 mi
10:00 PM82 °FPassing clouds.No wind89%29.83 "HgN/A
9:00 PM84 °FPartly cloudy.2 mph79%29.83 "HgN/A
8:00 PM84 °FPartly cloudy.5 mph79%29.77 "HgN/A
7:00 PM86 °FThunderstorms. Broken clouds.5 mph75%29.74 "HgN/A
6:00 PM88 °FThunderstorms. Broken clouds.5 mph75%29.74 "HgN/A
5:00 PM88 °FBroken clouds.7 mph70%29.74 "HgN/A
4:00 PM90 °FBroken clouds.8 mph71%29.74 "HgN/A
3:00 PM88 °FBroken clouds.9 mph70%29.77 "HgN/A
2:00 PM90 °FBroken clouds.8 mph67%29.83 "HgN/A
1:00 PM90 °FPartly sunny.6 mph67%29.86 "HgN/A
12:00 PM90 °FBroken clouds.1 mph63%29.86 "HgN/A
11:00 AM88 °FPartly sunny.3 mph66%29.86 "HgN/A
10:00 AM84 °FPartly sunny.3 mph79%29.86 "HgN/A
9:00 AM81 °FPartly sunny.3 mph84%29.86 "HgN/A
8:00 AM77 °FLight rain. Broken clouds.1 mph94%29.83 "HgN/A
7:00 AM75 °FLight rain. Partly cloudy.No wind100%29.80 "Hg5 mi
6:00 AM75 °FPartly cloudy.No wind100%29.80 "HgN/A
5:00 AM75 °FPartly cloudy.No wind100%29.77 "HgN/A
4:00 AM75 °FPartly cloudy.No wind100%29.77 "HgN/A
3:00 AM77 °FPartly cloudy.No wind94%29.80 "HgN/A
2:00 AM75 °FPartly cloudy.No wind100%29.83 "HgN/A
1:00 AM77 °FPartly cloudy.No wind94%29.83 "HgN/A
Weather by CustomWeather, © 2015

See weather overviewHow to use our weather pages